Weather History for KNBT - December, 2012

Change the Weather History Date:

Monday, December 31, 2012

  Actual Average (KEWN) Record (KEWN)
Temperature  
Mean Temperature 44 °F 44 °F  
Max Temperature 54 °F 55 °F 77 °F (1973)
Min Temperature 35 °F 34 °F 17 °F (1993)
Degree Days  
Heating Degree Days 20 21  
Month to date heating degree days 568  
Since 1 July heating degree days 994  
Cooling Degree Days 0 0  
Month to date cooling degree days 3  
Year to date cooling degree days 1903  
Moisture  
Dew Point 32 °F    
Average Humidity 62    
Maximum Humidity 78    
Minimum Humidity 34    
Precipitation  
Precipitation 0.00 in 0.11 in 1.56 in (1952)
Month to date precipitation 3.40  
Year to date precipitation 52.75  
Snow  
Snow 0.00 in - - ()
Month to date snowfall  
Since 1 July snowfall  
Snow Depth -    
Sea Level Pressure  
Sea Level Pressure 30.31 in    
Wind  
Wind Speed 7 mph (WSW)    
Max Wind Speed 13 mph    
Max Gust Speed 21 mph    
T = Trace of Precipitation, MM = Missing Value Source: NWS Daily Summary

Daily Weather History Graph

Daily Weather History Graph

Search for Another Location

Airport or City:

Trip Planner

Search our weather history database for the weather conditions in past years. The results will help you decide how hot, cold, wet, or windy it might be!

Date:

Astronomy

Dec. 31, 2012 Rise Set
Actual Time 7:13 AM EST 5:04 PM EST
Civil Twilight 6:45 AM EST 5:32 PM EST
Nautical Twilight 6:14 AM EST 6:04 PM EST
Astronomical Twilight 5:43 AM EST 6:35 PM EST
Moon 8:24 PM EST 9:01 AM EST
Length of Visible Light 10h 46m
Length of Day
9h 50m
Waning Gibbous, 90% of the Moon is Illuminated
Dec 31
Waning Gibbous
Jan 4
Last Quarter
Jan 11
New
Jan 18
First Quarter
Jan 26
Full

Hourly Weather History & Observations

Time (EST) Temp. Windchill Dew Point Humidity Pressure Visibility Wind Dir Wind Speed Gust Speed Precip Events Conditions
12:56 AM 37.0 °F 32.4 °F 30.0 °F 76% 30.39 in - WSW 5.8 mph - N/A   Clear
1:56 AM 35.1 °F 30.1 °F 28.0 °F 76% 30.40 in - WSW 5.8 mph - N/A   Clear
2:56 AM 37.0 °F 32.4 °F 27.0 °F 67% 30.38 in - WNW 5.8 mph - N/A   Clear
3:56 AM 37.9 °F 32.7 °F 28.0 °F 68% 30.37 in - NW 6.9 mph - N/A   Clear
4:56 AM 37.0 °F - 27.0 °F 67% 30.38 in - Calm Calm - N/A   Clear
5:56 AM 39.0 °F 34.8 °F 28.0 °F 65% 30.38 in - WNW 5.8 mph - N/A   Clear
6:56 AM 37.0 °F 31.6 °F 28.0 °F 70% 30.40 in - West 6.9 mph - N/A   Clear
7:56 AM 35.1 °F 32.2 °F 28.9 °F 78% 30.40 in - SW 3.5 mph - N/A   Clear
8:56 AM 39.9 °F 36.7 °F 32.0 °F 73% 30.40 in - WSW 4.6 mph - N/A   Clear
9:56 AM 42.1 °F 38.4 °F 28.9 °F 60% 30.41 in - West 5.8 mph - N/A   Clear
10:56 AM 45.0 °F 40.1 °F 25.0 °F 46% 30.39 in - WSW 9.2 mph - N/A   Clear
11:56 AM 48.9 °F - 27.0 °F 43% 30.35 in - SW 11.5 mph - N/A   Clear
12:56 PM 51.1 °F - 26.1 °F 38% 30.32 in - SW 12.7 mph - N/A   Clear
1:56 PM 53.1 °F - 26.1 °F 35% 30.28 in - WSW 9.2 mph - N/A   Clear
2:56 PM 54.0 °F - 26.1 °F 34% 30.27 in - SSW 12.7 mph 20.7 mph N/A   Clear
3:56 PM 51.1 °F - 28.9 °F 43% 30.26 in - SSW 12.7 mph - N/A   Clear
4:56 PM 48.9 °F - 33.1 °F 54% 30.25 in - SSW 8.1 mph - N/A   Clear
5:56 PM 45.0 °F 41.2 °F 34.0 °F 65% 30.24 in - SSW 6.9 mph - N/A   Clear
6:56 PM 46.0 °F 42.5 °F 37.0 °F 71% 30.23 in - SSW 6.9 mph - N/A   Clear
7:56 PM 46.9 °F - 39.9 °F 77% 30.23 in - SW 5.8 mph - N/A   Partly Cloudy
8:56 PM 52.0 °F - 43.0 °F 71% 30.20 in - SW 6.9 mph - N/A   Overcast
9:56 PM 51.1 °F - 43.0 °F 74% 30.19 in - WSW 5.8 mph - N/A   Overcast
10:56 PM 52.0 °F - 44.1 °F 74% 30.17 in - WSW 5.8 mph - N/A   Overcast
11:56 PM 52.0 °F - 44.1 °F 74% 30.16 in - SW 5.8 mph - N/A   Overcast